FDX158 ZSPD-VHHX

Flight info

Callsign FDX158
Flight time N/A
Altitude 37100
Route HSN81D HSN W13 TOGUG/K0906S1100 W13 BEGMO W117 DST B221 LJG A470 BEBEM/N0492F361 A470 DOTMI/N0489F380 V512 MAGOG
Aircraft MD11/H-SDE1E2E3FGHIJ2J3J4J5M1RWXY/LB1D1

Departure

Time N/A
Airport Shanghai Pudong International Airport (ZSPD)

Arrival

Time 2026-05-06 17:23
Airport Hong Kong International Airport Kai Tak (VHHX)
Time Latitude Longitude Altitude Speed Heading
2026-05-06 17:02 22.26026 115.08439 22821 ft 423 kts 259°
2026-05-06 17:02 22.25447 115.05305 21234 ft 423 kts 259°
2026-05-06 17:03 22.24871 115.02227 20632 ft 415 kts 259°
2026-05-06 17:03 22.24308 114.99183 20038 ft 412 kts 259°
2026-05-06 17:03 22.23755 114.96152 19429 ft 409 kts 259°
2026-05-06 17:03 22.23270 114.93140 18844 ft 406 kts 263°
2026-05-06 17:04 22.23050 114.90108 18244 ft 403 kts 267°
2026-05-06 17:04 22.22982 114.87098 17587 ft 400 kts 269°
2026-05-06 17:04 22.22968 114.84111 16976 ft 395 kts 269°
2026-05-06 17:04 22.22963 114.81164 16387 ft 391 kts 269°
2026-05-06 17:05 22.22952 114.78244 15814 ft 387 kts 269°
2026-05-06 17:05 22.22934 114.75355 15261 ft 382 kts 269°
2026-05-06 17:05 22.22909 114.72499 14834 ft 378 kts 269°
2026-05-06 17:05 22.22880 114.69702 14593 ft 374 kts 269°
2026-05-06 17:06 22.22850 114.66980 14486 ft 353 kts 269°
2026-05-06 17:06 22.22819 114.64398 14355 ft 334 kts 269°
2026-05-06 17:06 22.22790 114.61957 14252 ft 317 kts 269°
2026-05-06 17:06 22.22761 114.59630 14128 ft 303 kts 269°
2026-05-06 17:07 22.22733 114.57375 14012 ft 299 kts 269°
2026-05-06 17:07 22.22702 114.55146 13960 ft 297 kts 269°
2026-05-06 17:07 22.22671 114.52913 13896 ft 297 kts 269°
2026-05-06 17:07 22.22641 114.50689 13854 ft 296 kts 270°
2026-05-06 17:08 22.22611 114.48466 13794 ft 296 kts 270°
2026-05-06 17:08 22.22581 114.46245 13733 ft 296 kts 270°
2026-05-06 17:08 22.22551 114.44028 13660 ft 295 kts 269°
2026-05-06 17:08 22.22522 114.41812 13605 ft 295 kts 269°
2026-05-06 17:09 22.22492 114.39621 13542 ft 295 kts 269°
2026-05-06 17:09 22.22462 114.37401 13481 ft 295 kts 269°
2026-05-06 17:09 22.22431 114.35189 13418 ft 294 kts 269°
2026-05-06 17:09 22.22400 114.32977 13355 ft 294 kts 269°
2026-05-06 17:10 22.22369 114.30797 13289 ft 294 kts 269°
2026-05-06 17:10 22.22338 114.28586 13117 ft 295 kts 269°
2026-05-06 17:10 22.22306 114.26381 12789 ft 293 kts 269°
2026-05-06 17:10 22.22275 114.24183 12341 ft 292 kts 269°
2026-05-06 17:11 22.22243 114.21989 11871 ft 290 kts 269°
2026-05-06 17:11 22.22211 114.19819 11382 ft 288 kts 269°
2026-05-06 17:11 22.22179 114.17664 10890 ft 286 kts 268°
2026-05-06 17:11 22.22146 114.15519 10397 ft 285 kts 268°
2026-05-06 17:12 22.22115 114.13416 9995 ft 283 kts 268°
2026-05-06 17:12 22.22082 114.11291 9495 ft 285 kts 268°
2026-05-06 17:12 22.22049 114.09152 9093 ft 284 kts 268°
2026-05-06 17:12 22.22016 114.07022 8721 ft 283 kts 268°
2026-05-06 17:13 22.21982 114.04900 8345 ft 282 kts 268°
2026-05-06 17:13 22.21938 114.02808 8043 ft 275 kts 267°
2026-05-06 17:13 22.21875 114.00763 7596 ft 276 kts 266°
2026-05-06 17:13 22.21804 113.98673 7127 ft 278 kts 267°
2026-05-06 17:14 22.21735 113.96604 6773 ft 274 kts 267°
2026-05-06 17:14 22.21667 113.94561 6442 ft 270 kts 266°
2026-05-06 17:14 22.21600 113.92556 6201 ft 263 kts 267°
2026-05-06 17:14 22.21576 113.90618 6011 ft 252 kts 273°
2026-05-06 17:15 22.22071 113.88868 5933 ft 241 kts 301°
2026-05-06 17:15 22.23322 113.87750 5848 ft 236 kts 338°
2026-05-06 17:15 22.24944 113.87667 5773 ft 240 kts 15°
2026-05-06 17:15 22.26426 113.88503 5735 ft 244 kts 32°
2026-05-06 17:16 22.27787 113.89590 5398 ft 244 kts 37°
2026-05-06 17:16 22.29099 113.90740 5076 ft 241 kts 40°
2026-05-06 17:16 22.30339 113.91961 4720 ft 239 kts 44°
2026-05-06 17:16 22.31310 113.93370 4453 ft 234 kts 69°
2026-05-06 17:17 22.31657 113.95008 4365 ft 215 kts 84°
2026-05-06 17:17 22.31806 113.96602 4097 ft 213 kts 86°
2026-05-06 17:17 22.31927 113.98164 3738 ft 207 kts 86°
2026-05-06 17:17 22.32040 113.99682 3405 ft 202 kts 87°
2026-05-06 17:18 22.32147 114.01173 3092 ft 191 kts 87°
2026-05-06 17:18 22.32243 114.02528 2790 ft 177 kts 87°
2026-05-06 17:18 22.32334 114.03821 2521 ft 168 kts 88°
2026-05-06 17:18 22.32418 114.05058 2264 ft 163 kts 88°
2026-05-06 17:19 22.32501 114.06265 2004 ft 160 kts 89°
2026-05-06 17:19 22.32580 114.07456 1748 ft 155 kts 87°
2026-05-06 17:19 22.32655 114.08574 1558 ft 146 kts 86°
2026-05-06 17:19 22.32727 114.09673 1507 ft 147 kts 88°
2026-05-06 17:20 22.32796 114.10761 1455 ft 147 kts 87°
2026-05-06 17:20 22.32868 114.11862 1324 ft 146 kts 86°
2026-05-06 17:20 22.32955 114.12952 1126 ft 145 kts 83°
2026-05-06 17:20 22.33143 114.14029 1031 ft 145 kts 75°
2026-05-06 17:21 22.33424 114.15079 901 ft 146 kts 75°
2026-05-06 17:21 22.33668 114.16135 974 ft 145 kts 81°
2026-05-06 17:21 22.33795 114.17214 785 ft 144 kts 92°
2026-05-06 17:21 22.33467 114.18232 480 ft 146 kts 124°
2026-05-06 17:22 22.32743 114.19007 208 ft 145 kts 133°
2026-05-06 17:22 22.32046 114.19800 58 ft 146 kts 130°
2026-05-06 17:22 22.31430 114.20490 41 ft 100 kts 134°
2026-05-06 17:22 22.31045 114.20923 40 ft 69 kts 134°
2026-05-06 17:23 22.30839 114.21170 41 ft 30 kts 113°
2026-05-06 17:23 22.30881 114.21276 40 ft 1 kts 346°
2026-05-06 17:23 22.30885 114.21268 40 ft 1 kts 312°
2026-05-06 17:23 22.30903 114.21244 41 ft 8 kts 308°
2026-05-06 17:24 22.30955 114.21172 41 ft 16 kts 308°
2026-05-06 17:24 22.31047 114.21064 41 ft 23 kts 314°
2026-05-06 17:24 22.31173 114.20924 41 ft 27 kts 314°
2026-05-06 17:24 22.31297 114.20786 40 ft 24 kts 314°
2026-05-06 17:25 22.31409 114.20660 40 ft 22 kts 314°
2026-05-06 17:25 22.31512 114.20547 40 ft 20 kts 314°
2026-05-06 17:25 22.31604 114.20444 41 ft 18 kts 314°
2026-05-06 17:25 22.31685 114.20351 41 ft 16 kts 311°
2026-05-06 17:26 22.31756 114.20272 41 ft 14 kts 315°
2026-05-06 17:26 22.31818 114.20204 41 ft 12 kts 314°
2026-05-06 17:26 22.31873 114.20142 41 ft 13 kts 314°
2026-05-06 17:26 22.31952 114.20052 42 ft 19 kts 314°
2026-05-06 17:27 22.32053 114.19940 42 ft 21 kts 314°
2026-05-06 17:27 22.32153 114.19831 42 ft 20 kts 315°
2026-05-06 17:27 22.32244 114.19731 40 ft 18 kts 315°
2026-05-06 17:27 22.32344 114.19704 41 ft 14 kts 21°
2026-05-06 17:28 22.32411 114.19769 39 ft 12 kts 45°
2026-05-06 17:28 22.32467 114.19829 38 ft 11 kts 45°
2026-05-06 17:28 22.32515 114.19876 41 ft 8 kts 40°
2026-05-06 17:28 22.32557 114.19919 40 ft 10 kts 44°
2026-05-06 17:29 22.32613 114.19978 42 ft 12 kts 44°
2026-05-06 17:29 22.32681 114.20047 42 ft 13 kts 39°
2026-05-06 17:29 22.32732 114.20100 41 ft 3 kts 70°
2026-05-06 17:29 22.32732 114.20114 42 ft 1 kts 92°
2026-05-06 17:30 22.32728 114.20127 42 ft 4 kts 111°
2026-05-06 17:30 22.32715 114.20147 42 ft 2 kts 123°
2026-05-06 17:30 22.32709 114.20155 40 ft 1 kts 127°
2026-05-06 17:30 22.32708 114.20157 40 ft 0 kts 126°
2026-05-06 17:31 22.32702 114.20166 42 ft 2 kts 131°
2026-05-06 17:31 22.32697 114.20171 42 ft 0 kts 134°